www.pogodaiklimat.ru

Погода и климат >> Архив погоды >> Марокко >> Эль-Араиш


ПОГОДА в Эль-Араише

  • Прогноз погоды в Эль-Араише
  • Монитор погоды в Эль-Араише

АРХИВ ПОГОДЫ в Эль-Араише

Время (UTC), дата Ветер
(напр.,м/с)
 
Видим.   Явления Облачность Т
(С)
Тd
(С)
f
(%)
Тe
(С)
Тes
(С)
Комфортность P
(гПа)
Po
(гПа)
Тmin
(С)
Tmax
(С)
R
(мм)
R24
(мм)
S
(см)
18 11.09 СЗ 4-7
{7}
8000 м ясно +21.8 +11.4 52 +24 +24 комфорт 1016.5 1007.7 +24.4
06 12.09 СВ 2-3
{2}
10 км 5/5 600 м
[Sc]
+18.6 +6.6 45 +19 +19 1016.9 1008.1 +17.7
09 12.09 ЮВ 2-3
{3}
10 км 5/5 600 м
[Sc]
+19.8 +10.3 54 +22 +25 комфорт 1018.5 1009.7
12 12.09 СЗ 3-6
{6}
10 км 3/1 600 м
[Sc Ci sp]
+26.6 +6.1 27 +26 +37 жарко 1017.4 1008.8
15 12.09 СВ 8-14
{13}
10 км 4/3 600 м
[Sc Ci sp]
+27.9 +6.9 26 +27 +28 жарко 1015.5 1006.9
18 12.09 СВ 7-12
{14}
10 км 1/0
[Ci sp]
+25.0 +6.0 30 +25 +25 комфорт 1016.2 1007.6 +29.0
06 13.09 С 2-5
{5}
10 км 4/0
[Ci sp]
+20.9 +7.5 42 +23 +23 комфорт 1014.8 1006.0 +19.8
09 13.09 В 2-3
{5}
10 км 3/0
[Ci sp]
+25.1 +8.9 36 +26 +32 жарко 1015.6 1006.9
12 13.09 СЗ 4-7
{7}
10 км 4/0
[Ci sp]
+27.3 +8.1 30 +27 +36 жарко 1014.8 1006.2
15 13.09 С 5-7
{9}
10 км 8/0
[Ac trans Ci sp]
+27.6 +10.2 34 +28 +31 жарко 1013.5 1005.0
18 13.09 СЗ 2-4
{9}
10 км 9/0
[Ci sp]
+26.7 +11.3 38 +28 +28 жарко 1014.0 1005.5 +28.9
06 14.09 Ю 2-3
{4}
6000 м 3/0
[Ci sp]
+16.7 +16.3 97 +17 +17 1015.3 1006.4 +16.5
09 14.09 ЮВ 2-4
{4}
8000 м ясно +22.2 +15.1 64 +26 +32 душно 1016.2 1007.5
12 14.09 З 4-6
{6}
10 км ясно +25.1 +15.3 55 +28 +38 жарко 1015.7 1007.1
15 14.09 СЗ 4-8
{8}
10 км ясно +24.2 +18.1 69 +29 +35 душно 1014.5 1005.9
18 14.09 СЗ 2-3
{5}
10 км ясно +22.4 +18.6 79 +28 +28 душно 1015.1 1006.4 +27.1
06 15.09 Ю 2-4
{4}
8000 м 8/8 600 м
[Sc]
+18.0 +17.0 94 +19 +19 1017.4 1008.6 +17.5
09 15.09 Ю 1-3
{3}
8000 м ясно +23.3 +15.8 63 +28 +35 душно 1018.2 1009.5
12 15.09 З 5-8
{8}
8000 м ясно +24.3 +17.4 65 +28 +36 душно 1018.1 1009.4
15 15.09 З 6-8
{8}
8000 м 1/1 480 м
[Cu hum]
+24.1 +17.3 66 +28 +31 душно 1016.9 1008.3
18 15.09 С 3-5
{8}
8000 м 4/4 300 м
[St]
+21.1 +20.1 94 +26 +26 душно 1017.3 1008.6 +26.1
06 16.09 ЮВ 1-2
{2}
100 м туман 10/10 300 м
[St]
+16.7 +16.7 100 +17 +17 1017.7 1008.8 +15.4
09 16.09 ЮВ 1-2
{2}
100 м туман 10/10 300 м
[St]
+17.5 +17.5 100 +19 +19 1018.9 1010.1
12 16.09 СЗ 3-6
{5}
6000 м ясно +23.3 +16.9 67 +28 +41 душно 1017.6 1008.9
15 16.09 СЗ 6-9
{9}
8000 м 5/0
[Ci sp]
+20.3 +17.0 81 +23 +26 комфорт 1016.1 1007.3
18 16.09 СЗ 5-7
{9}
3000 м дымка 9/5 300 м
[St Ci sp]
+19.0 +19.0 100 +20 +20 1015.4 1006.6 +24.2
06 17.09 Ю 2-4
{5}
600 м туман 8/8 300 м
[St]
+18.6 +18.6 100 +20 +20 1014.2 1005.4 +18.2
09 17.09 Ю 2-3
{3}
600 м туман 8/8 300 м
[St]
+21.6 +21.4 99 +28 +29 очень
душно
1015.1 1006.4
12 17.09 З 5-7
{7}
8000 м {туман} ясно +25.6 +16.0 55 +29 +36 душно 1014.4 1005.8
15 17.09 СЗ 5-7
{8}
8000 м ясно +24.4 +17.8 67 +29 +33 душно 1013.7 1005.1
18 17.09 СЗ 5-7
{8}
8000 м 3/0
[Ci sp]
+21.3 +19.4 89 +26 +26 душно 1013.1 1004.4 +27.8
06 18.09 СЗ 2-3
{3}
8000 м 10/10 480 м
[Cu Sc]
+19.9 +18.7 93 +24 +24 комфорт 1015.5 1006.7 +19.8
09 18.09 С 3-5
{5}
8000 м 3/3 600 м
[Sc]
+22.0 +17.6 76 +27 +30 душно 1016.7 1008.0

 

Местоположение метеостанции Эль-Араиш (Марокко): широта 35.18 долгота -6.13 высота над уровнем моря 49 м.

В архиве по умолчанию представлена погода в Эль-Араише за последнюю неделю. Архивные данные за месяц целиком и за предыдущие месяцы, начиная с января 2011 года, Вы можете получить, выбрав интересующий диапазон дат из раскрывающегося списка и нажав кнопку "Ввод!".


*Определитесь, кто Вы:
робот инопланетянин человек

Внимание! Время в таблицах - всемирное. Для получения местного времени необходимо прибавить поправку, которая равна 0 ч.

Смотрите также архив погоды в соседних городах и на ближайших метеорологических станциях:

Погода в Танжере (Марокко) (65 км)
Погода в Танжер порту (Марокко) (73 км)
Погода в Шавене (Марокко) (76 км)
Погода в Тетуане (Марокко) (85 км)
Погода в Тарифе (Испания) (105 км)
Погода в Кенитре (Марокко) (107 км)
Погода в Сеуте (Испания) (107 км)
Погода в Вехер-де-ла-Фронтера (Испания) (120 км)
Погода Гибралтаре (Гибралтар) (129 км)
Погода в Рабате (Марокко) (139 км)

Пояснения к столбцам:

Ветер - указаны скорость ветра в м/с - средняя за 10 мин, порывы в срок и между сроками (в фигурных скобках) и направление, откуда дует ветер: С - северный, СВ - северо-восточный, В - восточный, ЮВ - юго-восточный, Ю - южный, ЮЗ - юго-западный, З - западный, СЗ - северо-западный.
Видимость - горизонтальная дальность видимости в метрах или километрах. При видимости от 1 до 10 км при отсутствии осадков обычно наблюдается дымка, при ухудшении видимости до 1 км и менее - туман. В сухую погоду видимость может ухудшаться дымом, пылью или мглою.
Явления - указаны атмосферные явления, наблюдавшиеся в срок или в последний час перед сроком; фигурными скобками обозначены явления, наблюдавшиеся между сроками (за 1-3 часа до срока); квадратными скобками обозначены град или гололедные отложения с указанием их диаметра в мм.
Облачность - указаны через наклонную черту общая и нижняя облачность в баллах и высота нижней границы облаков в метрах; квадратными скобками обозначены формы облаков: Ci - перистые, Cs - перисто-слоистые, Cc - перисто-кучевые, Ac - высококучевые, As - высокослоистые, Sc - слоисто-кучевые, Ns - слоисто-дождевые, Cu - кучевые, Cb - кучево-дождевые. Подробнее классификацию облаков см. в Атласе облаков (PDF).
T - Температура воздуха - температура, измеренная на высоте 2 м над землей.
Td - Температура точки росы - температура, при понижении до которой содержащийся в воздухе водяной пар достигнет насыщения.
f - Относительная влажность воздуха - влажноcть воздуха, измеренная на высоте 2 м над землей.
Te - Эффективная температура - температура, которую ощущает одетый по сезону человек в тени. Характеристика душности погоды. При расчете учитывается влияние влажности воздуха и скорости ветра на теплоощущения человека.
Tes - Эффективная температура на солнце - температура, которую ощущает человек, с поправкой на солнечный нагрев. Характеристика знойности погоды. Зависит от высоты солнца над горизонтом, облачности и скорости ветра. Ночью, в пасмурную погоду, а также при ветре 12 м/с и более поправка равна нулю.
P - Атмосферное давление - приведенное к уровню моря атмосферное давление.
Po - Атмосферное давление - измеренное на уровне метеостанции атмосферное давление.
Tmin - Минимальная температура - минимум температуры воздуха на высоте 2 м над землей.
Tmax - Максимальная температура - максимум температуры воздуха на высоте 2 м над землей.
R - Количество осадков - Количество выпавших осадков за период времени, мм. При наведении курсора мыши на число - период времени, за который выпало указанное количество осадков.
R24 - Количество осадков - Количество выпавших осадков за 24 часа, мм.
S - Снежный покров - Высота снежного покрова, см. При наведении курсора мыши на число - состояние снежного покрова и степень покрытия местности в баллах.